Olive Branch, MS

4:13 AM CST on December 13, 2017 (GMT -0600)
Olive Branch

Weather History for KOLV - December, 2012

Change the Weather History Date:

Wednesday, December 26, 2012

  Actual Average (KMEM) Record (KMEM)
Temperature  
Mean Temperature 32 °F -  
Max Temperature 33 °F 47 °F 80 °F (2015)
Min Temperature 30 °F 31 °F 9 °F (1983)
Degree Days  
Heating Degree Days 34    
Moisture  
Dew Point 31 °F    
Average Humidity 99    
Maximum Humidity 100    
Minimum Humidity 93    
Precipitation  
Precipitation 0.00 in - - ()
Sea Level Pressure  
Sea Level Pressure 29.88 in    
Wind  
Wind Speed 15 mph (NW)    
Max Wind Speed 25 mph    
Max Gust Speed 32 mph    
Visibility 6 miles    
Events Snow    
Averages and records for this station are not official NWS values.
T = Trace of Precipitation, MM = Missing Value Source: NWS Daily Summary

Daily Weather History Graph

Daily Weather History Graph

Search for Another Location

Airport or City:

Trip Planner

Search our weather history database for the weather conditions in past years. The results will help you decide how hot, cold, wet, or windy it might be!

Date:

Astronomy

Dec. 26, 2012 Rise Set
Actual Time 7:05 AM CST 4:54 PM CST
Civil Twilight 6:37 AM CST 5:22 PM CST
Nautical Twilight 6:05 AM CST 5:54 PM CST
Astronomical Twilight 5:34 AM CST 6:25 PM CST
Moon 3:47 PM CST (12/26) 5:30 AM CST (12/26)
Length of Visible Light 10h 45m
Length of Day
9h 48m
Waxing Gibbous, 97% of the Moon is Illuminated
Dec 26
Waxing Gibbous
Dec 28
Full
Jan 4
Last Quarter
Jan 11
New
Jan 18
First Quarter

Hourly Weather History & Observations

Time (CST) Temp. Windchill Dew Point Humidity Pressure Visibility Wind Dir Wind Speed Gust Speed Precip Events Conditions
12:15 AM 33.8 °F 23.2 °F 33.8 °F 100% 29.52 in 2.5 mi North 17.3 mph 27.6 mph 0.01 in   Overcast
12:35 AM 33.8 °F 23.2 °F 33.8 °F 100% 29.53 in 3.0 mi North 17.3 mph 27.6 mph 0.02 in   Overcast
12:55 AM 33.8 °F 23.2 °F 33.8 °F 100% 29.53 in 2.0 mi North 17.3 mph 26.5 mph N/A   Overcast
1:15 AM 32.0 °F 20.1 °F 32.0 °F 100% 29.54 in 4.0 mi North 19.6 mph 23.0 mph 0.00 in   Overcast
1:35 AM 32.0 °F 20.1 °F 32.0 °F 100% 29.55 in 4.0 mi NNW 19.6 mph 29.9 mph 0.00 in   Overcast
1:55 AM 32.0 °F 20.8 °F 32.0 °F 100% 29.57 in 2.0 mi NNW 17.3 mph 25.3 mph N/A   Overcast
2:15 AM 32.0 °F 21.2 °F 32.0 °F 100% 29.59 in 5.0 mi NNW 16.1 mph 26.5 mph 0.00 in   Overcast
2:35 AM 32.0 °F 20.5 °F 32.0 °F 100% 29.61 in 4.0 mi NNW 18.4 mph 23.0 mph 0.00 in   Overcast
2:55 AM 32.0 °F 21.2 °F 32.0 °F 100% 29.62 in 1.0 mi NW 16.1 mph 27.6 mph 0.00 in   Overcast
3:15 AM 32.0 °F 20.8 °F 32.0 °F 100% 29.64 in 0.8 mi NNW 17.3 mph 25.3 mph 0.00 in   Overcast
3:35 AM 32.0 °F 19.8 °F 32.0 °F 100% 29.65 in 0.8 mi NNW 20.7 mph 29.9 mph 0.00 in   Overcast
3:55 AM 32.0 °F 19.5 °F 32.0 °F 100% 29.66 in 1.0 mi NW 21.9 mph 28.8 mph 0.00 in   Overcast
4:15 AM 32.0 °F 20.8 °F 32.0 °F 100% 29.68 in 1.0 mi NW 17.3 mph 31.1 mph 0.00 in   Overcast
4:35 AM 32.0 °F 18.6 °F 32.0 °F 100% 29.69 in 1.5 mi NNW 25.3 mph 31.1 mph 0.00 in   Overcast
4:55 AM 32.0 °F 20.5 °F 32.0 °F 100% 29.70 in 3.0 mi NW 18.4 mph 32.2 mph 0.00 in   Overcast
5:15 AM 32.0 °F 19.8 °F 32.0 °F 100% 29.72 in 4.0 mi NNW 20.7 mph 26.5 mph 0.00 in   Overcast
5:35 AM 32.0 °F 20.1 °F 32.0 °F 100% 29.73 in 7.0 mi NNW 19.6 mph 26.5 mph 0.00 in   Overcast
5:55 AM 32.0 °F 20.1 °F 32.0 °F 100% 29.74 in 9.0 mi NNW 19.6 mph 25.3 mph 0.00 in   Overcast
6:50 AM 32.0 °F 19.5 °F 32.0 °F 100% 29.82 in 7.0 mi WNW 21.9 mph 32.2 mph N/A   Overcast
7:02 AM 32.0 °F 20.5 °F 32.0 °F 100% 29.82 in 3.0 mi NW 18.4 mph 27.6 mph N/A Snow Light Snow
7:50 AM 32.0 °F 20.5 °F 32.0 °F 100% 29.86 in 1.5 mi WNW 18.4 mph 27.6 mph N/A Snow Snow
8:50 AM 30.2 °F 18.9 °F 30.2 °F 100% 29.91 in 1.0 mi WNW 16.1 mph 21.9 mph N/A Snow Snow
9:50 AM 30.2 °F 20.2 °F 30.2 °F 100% 29.98 in 7.0 mi WNW 12.7 mph 23.0 mph N/A   Overcast
11:45 AM 30.2 °F 18.5 °F 30.2 °F 100% 30.03 in 8.0 mi WNW 17.3 mph 24.2 mph N/A   Overcast
12:50 PM 30.2 °F 20.2 °F 30.2 °F 100% 30.01 in 10.0 mi NNW 12.7 mph 17.3 mph N/A   Overcast
1:50 PM 32.0 °F 22.5 °F 30.2 °F 93% 30.03 in 10.0 mi NW 12.7 mph - N/A   Overcast
2:45 PM 32.0 °F 23.0 °F 30.2 °F 93% 30.06 in 10.0 mi NW 11.5 mph - N/A   Overcast
3:55 PM 32.0 °F 23.6 °F 30.2 °F 93% 30.10 in 9.0 mi NW 10.4 mph 18.4 mph N/A   Overcast
4:50 PM 32.0 °F 23.0 °F 30.2 °F 93% 30.11 in 10.0 mi NW 11.5 mph - N/A   Overcast
7:50 PM 32.0 °F 26.4 °F 30.2 °F 93% 30.15 in 10.0 mi WNW 5.8 mph - N/A   Overcast
8:15 PM 32.0 °F - 30.2 °F 93% 30.15 in 10.0 mi Calm Calm - 0.00 in   Overcast
8:35 PM 32.0 °F - 30.2 °F 93% 30.16 in 9.0 mi Calm Calm - 0.00 in   Overcast
8:55 PM 32.0 °F - 32.0 °F 100% 30.17 in 9.0 mi Calm Calm - 0.00 in   Overcast
9:15 PM 32.0 °F 27.5 °F 32.0 °F 100% 30.17 in 7.0 mi West 4.6 mph - 0.00 in   Overcast
9:35 PM 32.0 °F 27.5 °F 32.0 °F 100% 30.18 in 8.0 mi West 4.6 mph - 0.00 in   Overcast
9:55 PM 32.0 °F 25.6 °F 32.0 °F 100% 30.19 in 10.0 mi West 6.9 mph - 0.00 in   Overcast
10:15 PM 30.2 °F 26.7 °F 30.2 °F 100% 30.18 in 10.0 mi West 3.5 mph - 0.00 in   Mostly Cloudy
10:55 PM 30.2 °F 26.7 °F 30.2 °F 100% 30.20 in 10.0 mi West 3.5 mph - 0.00 in   Overcast
11:15 PM 30.2 °F 25.4 °F 30.2 °F 100% 30.20 in 9.0 mi West 4.6 mph - 0.00 in   Overcast
11:35 PM 30.2 °F 26.7 °F 30.2 °F 100% 30.20 in 8.0 mi West 3.5 mph - 0.00 in   Overcast
11:55 PM 30.2 °F 26.7 °F 30.2 °F 100% 30.20 in 10.0 mi West 3.5 mph - 0.00 in   Overcast